Meteo orario Abhar

Oggi, 8 Marzo, Lunedi

Tempo Temperatura Precipitazioni Vento Pressione Umidità
00:00 +2°C° 0 mm 1 m/s 617 mm Hg 83%
01:00 +2°C° 0 mm 1 m/s 616 mm Hg 82%
02:00 +2°C° 0 mm 1 m/s 616 mm Hg 81%
03:00 0°C° 0 mm 0 m/s 616 mm Hg 82%
04:00 0°C° 0 mm 0 m/s 616 mm Hg 79%
05:00 +1°C° 0 mm 0 m/s 616 mm Hg 75%
06:00 +1°C° 0 mm 0 m/s 616 mm Hg 71%
07:00 +4°C° 0 mm 1 m/s 617 mm Hg 60%
08:00 +6°C° 0 mm 1 m/s 618 mm Hg 49%
09:00 +7°C° 0 mm 2 m/s 618 mm Hg 37%
10:00 +8°C° 0 mm 2 m/s 618 mm Hg 32%
11:00 +9°C° 0 mm 3 m/s 618 mm Hg 27%
12:00 +11°C° 0 mm 4 m/s 618 mm Hg 22%
13:00 +10°C° 0 mm 5 m/s 618 mm Hg 22%
14:00 +12°C° 0 mm 5 m/s 617 mm Hg 21%
15:00 +11°C° 0 mm 6 m/s 617 mm Hg 21%
16:00 +10°C° 0 mm 5 m/s 617 mm Hg 25%
17:00 +10°C° 0 mm 4 m/s 616 mm Hg 29%
18:00 +8°C° 0 mm 4 m/s 616 mm Hg 33%
19:00 +8°C° 0 mm 4 m/s 616 mm Hg 36%
20:00 +7°C° 0 mm 4 m/s 616 mm Hg 39%
21:00 +6°C° 0 mm 4 m/s 616 mm Hg 41%
22:00 +6°C° 0 mm 5 m/s 616 mm Hg 43%
23:00 +4°C° 0 mm 6 m/s 615 mm Hg 45%

Domani, 9 Marzo, Martedi

Tempo Temperatura Precipitazioni Vento Pressione Umidità
00:00 +3°C° 0 mm 7 m/s 615 mm Hg 47%
01:00 +3°C° 0 mm 7 m/s 615 mm Hg 48%
02:00 +2°C° 0 mm 8 m/s 615 mm Hg 48%
03:00 +2°C° 0 mm 8 m/s 616 mm Hg 49%
04:00 +1°C° 0 mm 8 m/s 616 mm Hg 50%
05:00 +1°C° 0 mm 8 m/s 616 mm Hg 52%
06:00 +1°C° 0 mm 8 m/s 616 mm Hg 54%
07:00 +2°C° 0 mm 9 m/s 616 mm Hg 48%
08:00 +3°C° 0 mm 10 m/s 617 mm Hg 42%
09:00 +6°C° 0 mm 11 m/s 617 mm Hg 36%
10:00 +6°C° 0 mm 11 m/s 617 mm Hg 33%
11:00 +7°C° 0 mm 11 m/s 617 mm Hg 31%
12:00 +8°C° 0 mm 11 m/s 617 mm Hg 28%
13:00 +8°C° 0 mm 11 m/s 617 mm Hg 28%
14:00 +9°C° 0 mm 10 m/s 617 mm Hg 28%
15:00 +9°C° 0 mm 10 m/s 617 mm Hg 28%
16:00 +8°C° 0 mm 10 m/s 617 mm Hg 34%
17:00 +7°C° 0 mm 10 m/s 617 mm Hg 40%
18:00 +5°C° 0 mm 10 m/s 617 mm Hg 46%
19:00 +5°C° 0 mm 10 m/s 617 mm Hg 51%
20:00 +3°C° 0 mm 9 m/s 617 mm Hg 55%
21:00 +3°C° 0 mm 9 m/s 617 mm Hg 59%
22:00 +2°C° 0 mm 8 m/s 617 mm Hg 62%
23:00 +1°C° 0 mm 8 m/s 617 mm Hg 64%

Dopodomani, 10 Marzo, Mercoledi

Tempo Temperatura Precipitazioni Vento Pressione Umidità
00:00 +2°C° 0 mm 7 m/s 617 mm Hg 66%
01:00 +2°C° 0 mm 7 m/s 617 mm Hg 69%
02:00 +1°C° 0 mm 6 m/s 617 mm Hg 72%
03:00 +1°C° 0 mm 5 m/s 617 mm Hg 75%
04:00 0°C° 0 mm 5 m/s 617 mm Hg 77%
05:00 0°C° 0 mm 5 m/s 617 mm Hg 80%
06:00 0°C° 0 mm 4 m/s 617 mm Hg 82%
07:00 +1°C° 0 mm 5 m/s 618 mm Hg 73%
08:00 +2°C° 0 mm 6 m/s 619 mm Hg 63%
09:00 +4°C° 0 mm 7 m/s 619 mm Hg 54%
10:00 +5°C° 0 mm 7 m/s 619 mm Hg 49%
11:00 +6°C° 0 mm 7 m/s 619 mm Hg 44%
12:00 +8°C° 0 mm 7 m/s 620 mm Hg 38%
13:00 +9°C° 0 mm 6 m/s 620 mm Hg 35%
14:00 +9°C° 0 mm 6 m/s 619 mm Hg 32%
15:00 +10°C° 0 mm 6 m/s 619 mm Hg 28%
16:00 +9°C° 0 mm 5 m/s 619 mm Hg 33%
17:00 +8°C° 0 mm 4 m/s 619 mm Hg 37%
18:00 +8°C° 0 mm 3 m/s 618 mm Hg 41%
19:00 +7°C° 0 mm 2 m/s 618 mm Hg 46%
20:00 +6°C° 0 mm 2 m/s 618 mm Hg 52%
21:00 +6°C° 0 mm 1 m/s 618 mm Hg 57%
22:00 +6°C° 0 mm 1 m/s 618 mm Hg 56%
23:00 +6°C° 0 mm 1 m/s 618 mm Hg 56%

11 Marzo, Giovedi

Tempo Temperatura Precipitazioni Vento Pressione Umidità
00:00 +6°C° 0 mm 1 m/s 617 mm Hg 55%
01:00 +5°C° 0 mm 1 m/s 617 mm Hg 56%
02:00 +5°C° 0 mm 1 m/s 616 mm Hg 57%
03:00 +4°C° 0 mm 2 m/s 616 mm Hg 58%
04:00 +3°C° 0 mm 3 m/s 616 mm Hg 60%
05:00 +3°C° 0 mm 4 m/s 616 mm Hg 63%
06:00 +2°C° 0 mm 5 m/s 616 mm Hg 65%
07:00 +2°C° 0.4 mm 5 m/s 616 mm Hg 72%
08:00 +3°C° 0.4 mm 4 m/s 616 mm Hg 78%
09:00 +3°C° 0.4 mm 3 m/s 616 mm Hg 85%
10:00 +4°C° 0 mm 4 m/s 616 mm Hg 80%
11:00 +5°C° 0 mm 4 m/s 615 mm Hg 74%
12:00 +6°C° 0 mm 5 m/s 615 mm Hg 69%
13:00 +6°C° 0.9 mm 5 m/s 614 mm Hg 69%
14:00 +6°C° 0.9 mm 5 m/s 613 mm Hg 69%
15:00 +7°C° 0.9 mm 5 m/s 612 mm Hg 69%
16:00 +6°C° 0.6 mm 4 m/s 612 mm Hg 69%
17:00 +6°C° 0.6 mm 4 m/s 612 mm Hg 69%
18:00 +6°C° 0.6 mm 4 m/s 612 mm Hg 69%
19:00 +5°C° 0.3 mm 4 m/s 611 mm Hg 71%
20:00 +5°C° 0.3 mm 4 m/s 611 mm Hg 74%
21:00 +4°C° 0.3 mm 3 m/s 611 mm Hg 77%
22:00 +4°C° 0 mm 3 m/s 611 mm Hg 75%
23:00 +4°C° 0 mm 3 m/s 610 mm Hg 74%

12 Marzo, Venerdi

Tempo Temperatura Precipitazioni Vento Pressione Umidità
00:00 +3°C° 0 mm 3 m/s 610 mm Hg 72%
01:00 +3°C° 0 mm 3 m/s 610 mm Hg 73%
02:00 +3°C° 0 mm 3 m/s 610 mm Hg 74%
03:00 +3°C° 0 mm 3 m/s 609 mm Hg 76%
04:00 +2°C° 0 mm 3 m/s 609 mm Hg 78%
05:00 +2°C° 0 mm 3 m/s 609 mm Hg 81%
06:00 +2°C° 0 mm 2 m/s 609 mm Hg 84%
07:00 0°C° 0.4 mm 3 m/s 609 mm Hg 82%
08:00 -2°C° 0.4 mm 4 m/s 609 mm Hg 80%
09:00 -4°C° 0.4 mm 5 m/s 609 mm Hg 78%
10:00 -5°C° 1.5 mm 6 m/s 609 mm Hg 81%
11:00 -8°C° 1.5 mm 7 m/s 608 mm Hg 85%
12:00 -10°C° 1.5 mm 8 m/s 608 mm Hg 88%
13:00 -11°C° 2.6 mm 8 m/s 608 mm Hg 90%
14:00 -12°C° 2.6 mm 8 m/s 608 mm Hg 91%
15:00 -14°C° 2.6 mm 9 m/s 608 mm Hg 92%
16:00 -15°C° 0.8 mm 9 m/s 609 mm Hg 91%
17:00 -15°C° 0.8 mm 8 m/s 610 mm Hg 90%
18:00 -16°C° 0.8 mm 8 m/s 611 mm Hg 90%
19:00 -16°C° 0.2 mm 8 m/s 613 mm Hg 89%
20:00 -15°C° 0.2 mm 7 m/s 614 mm Hg 89%
21:00 -15°C° 0.2 mm 7 m/s 615 mm Hg 88%
22:00 -16°C° 0.1 mm 6 m/s 616 mm Hg 88%
23:00 -16°C° 0.1 mm 6 m/s 617 mm Hg 89%

13 Marzo, Sabato

Tempo Temperatura Precipitazioni Vento Pressione Umidità
00:00 -17°C° 0.1 mm 5 m/s 617 mm Hg 89%
01:00 -18°C° 0 mm 5 m/s 617 mm Hg 89%
02:00 -19°C° 0 mm 5 m/s 618 mm Hg 89%
03:00 -18°C° 0 mm 4 m/s 618 mm Hg 89%
04:00 -19°C° 0 mm 4 m/s 618 mm Hg 89%
05:00 -20°C° 0 mm 4 m/s 619 mm Hg 89%
06:00 -20°C° 0 mm 4 m/s 619 mm Hg 89%
07:00 -18°C° 0 mm 4 m/s 620 mm Hg 85%
08:00 -17°C° 0 mm 4 m/s 621 mm Hg 82%
09:00 -15°C° 0 mm 4 m/s 622 mm Hg 79%
10:00 -14°C° 0 mm 4 m/s 622 mm Hg 77%
11:00 -10°C° 0 mm 3 m/s 622 mm Hg 74%
12:00 -9°C° 0 mm 3 m/s 622 mm Hg 71%
13:00 -9°C° 0 mm 3 m/s 622 mm Hg 70%
14:00 -7°C° 0 mm 2 m/s 622 mm Hg 69%
15:00 -7°C° 0 mm 2 m/s 621 mm Hg 68%
16:00 -8°C° 0 mm 2 m/s 621 mm Hg 71%
17:00 -10°C° 0 mm 2 m/s 620 mm Hg 74%
18:00 -12°C° 0 mm 2 m/s 619 mm Hg 77%
19:00 -13°C° 0 mm 2 m/s 619 mm Hg 74%
20:00 -13°C° 0 mm 2 m/s 619 mm Hg 71%
21:00 -13°C° 0 mm 2 m/s 620 mm Hg 68%
22:00 -13°C° 0 mm 2 m/s 619 mm Hg 64%
23:00 -13°C° 0 mm 2 m/s 619 mm Hg 60%
Mostrare altro

Abbiamo bisogno del tuo consenso

Meteoprog e i nostri fornitori di servizi possono memorizzare e accedere a dati personali come cookie, identificatori di dispositivi o altre tecnologie simili sul tuo dispositivo e possono elaborare tali dati per personalizzare i contenuti e gli annunci, nonché fornire funzionalità dei social media e analizzarne il traffico.

  • Archiviare e/o accedere alle informazioni sul tuo dispositivo

    Cookie, identificatori di dispositivi o altre informazioni possono essere memorizzati o resi accessibili sul tuo dispositivo per le finalità sopra indicate.

  • Annunci e contenuti personalizzati, misurazione di annunci e contenuti, approfondimenti sul pubblico e sviluppo di prodotti

    Gli annunci e i contenuti possono essere personalizzati in base a un profilo. È possibile aggiungere più dati per personalizzare meglio annunci e contenuti. È possibile misurare il rendimento degli annunci e dei contenuti. È possibile ricavare informazioni sul pubblico che ha visto gli annunci e i contenuti. Tali dati possono essere utilizzati per sviluppare o migliorare l'esperienza, i sistemi e il software dell'utente.

Cliccando su “Accetto”, acconsenti all'uso di cookie, identificatori di dispositivo, web beacon o altre tecnologie simili. Puoi modificare le impostazioni nel browser del tuo dispositivo.

Per determinati scopi, è possibile fare affidamento su interessi legali, piuttosto che sul consenso. Puoi approfondire questo argomento consultando la nostra Informativa sulla privacy e sui cookie.